Weather History for KSGF - June, 2013

Change the Weather History Date:

Sunday, June 2, 2013

  Actual Average Record
Temperature  
Mean Temperature 57 °F 70 °F  
Max Temperature 63 °F 80 °F 93 °F (1934)
Min Temperature 50 °F 60 °F 45 °F (1956)
Degree Days  
Heating Degree Days 8 1  
Month to date heating degree days 8 2  
Since 1 June heating degree days 8 2  
Since 1 July heating degree days 4502 4571  
Cooling Degree Days 0 6  
Month to date cooling degree days 3 12  
Year to date cooling degree days 131 127  
Since 1 June cooling degree days 3 12  
Growing Degree Days 8 (Base 50)    
Moisture  
Dew Point 54 °F    
Average Humidity 83    
Maximum Humidity 93    
Minimum Humidity 72    
Precipitation  
Precipitation 0.00 in 0.15 in 1.99 in (1935)
Month to date precipitation 0.37 0.31  
Year to date precipitation 24.09 18.34  
Snow  
Snow 0.00 in - - ()
Month to date snowfall 0.0  
Since 1 June snowfall 0.0  
Since 1 July snowfall 12.7  
Snow Depth 0.00 in    
Sea Level Pressure  
Sea Level Pressure 30.03 in    
Wind  
Wind Speed 7 mph (NNW)    
Max Wind Speed 14 mph    
Max Gust Speed 18 mph    
Visibility 10 miles    
Events      
T = Trace of Precipitation, MM = Missing Value Source: NWS Daily Summary

Daily Weather History Graph

Daily Weather History Graph

Search for Another Location

Airport or City:

Trip Planner

Search our weather history database for the weather conditions in past years. The results will help you decide how hot, cold, wet, or windy it might be!

Date:

Astronomy

Jun. 02, 2013 Rise Set
Actual Time 5:54 AM CDT 8:29 PM CDT
Civil Twilight 5:23 AM CDT 8:59 PM CDT
Nautical Twilight 4:46 AM CDT 9:37 PM CDT
Astronomical Twilight 4:04 AM CDT 10:19 PM CDT
Moon 2:14 AM CDT (6/2) 3:06 PM CDT (6/2)
Length of Visible Light 15h 35m
Length of Day
14h 34m
Waning Crescent, 30% of the Moon is Illuminated
Jun 2
Waning Crescent
Jun 8
New
Jun 16
First Quarter
Jun 23
Full
Jun 29
Last Quarter

Hourly Weather History & Observations

Time (CDT) Temp. Dew Point Humidity Pressure Visibility Wind Dir Wind Speed Gust Speed Precip Events Conditions
12:52 AM 60.1 °F 55.9 °F 86% 29.98 in 10.0 mi WNW 3.5 mph - N/A   Partly Cloudy
1:52 AM 61.0 °F 57.0 °F 87% 29.98 in 10.0 mi WNW 3.5 mph - N/A   Overcast
2:52 AM 60.1 °F 57.0 °F 90% 29.97 in 10.0 mi NW 6.9 mph - N/A   Overcast
3:52 AM 60.1 °F 57.0 °F 90% 29.96 in 10.0 mi West 5.8 mph - N/A   Overcast
4:52 AM 57.9 °F 55.0 °F 90% 29.97 in 10.0 mi WNW 5.8 mph - N/A   Clear
5:52 AM 57.0 °F 55.0 °F 93% 29.98 in 10.0 mi NW 5.8 mph - N/A   Overcast
6:52 AM 57.9 °F 55.0 °F 90% 30.00 in 10.0 mi NNW 11.5 mph - N/A   Overcast
7:06 AM 57.9 °F 54.0 °F 87% 30.03 in 10.0 mi NNW 11.5 mph - N/A   Overcast
7:16 AM 57.9 °F 54.0 °F 87% 30.03 in 10.0 mi NNW 10.4 mph - N/A   Overcast
7:52 AM 59.0 °F 54.0 °F 83% 30.02 in 10.0 mi NNW 9.2 mph - N/A   Overcast
8:26 AM 60.1 °F 54.0 °F 80% 30.03 in 10.0 mi North 12.7 mph - N/A   Overcast
8:40 AM 60.1 °F 53.1 °F 78% 30.03 in 10.0 mi North 11.5 mph - N/A   Overcast
8:50 AM 60.8 °F 53.6 °F 77% 30.04 in 10.0 mi NNW 10.4 mph - N/A   Overcast
8:52 AM 60.1 °F 54.0 °F 80% 30.03 in 10.0 mi NNW 12.7 mph - N/A   Overcast
9:09 AM 61.0 °F 54.0 °F 78% 30.04 in 10.0 mi NNW 11.5 mph - N/A   Mostly Cloudy
9:21 AM 61.0 °F 54.0 °F 78% 30.05 in 10.0 mi North 12.7 mph - N/A   Overcast
9:52 AM 61.0 °F 54.0 °F 78% 30.04 in 10.0 mi North 9.2 mph - N/A   Overcast
10:52 AM 60.1 °F 53.1 °F 78% 30.05 in 10.0 mi North 8.1 mph - N/A   Overcast
11:52 AM 61.0 °F 53.1 °F 75% 30.05 in 10.0 mi NW 9.2 mph - N/A   Overcast
12:52 PM 61.0 °F 53.1 °F 75% 30.06 in 10.0 mi NW 10.4 mph - N/A   Overcast
1:52 PM 62.1 °F 53.1 °F 72% 30.06 in 10.0 mi North 6.9 mph - N/A   Overcast
2:52 PM 63.0 °F 54.0 °F 72% 30.04 in 10.0 mi WNW 8.1 mph - N/A   Overcast
3:15 PM 63.0 °F 54.0 °F 72% 30.06 in 10.0 mi NW 8.1 mph - N/A   Overcast
3:43 PM 62.1 °F 54.0 °F 75% 30.05 in 10.0 mi NNW 9.2 mph - N/A   Overcast
3:52 PM 63.0 °F 54.0 °F 72% 30.04 in 10.0 mi NNW 12.7 mph - N/A   Overcast
4:52 PM 62.1 °F 54.0 °F 75% 30.04 in 10.0 mi NNW 10.4 mph - N/A   Overcast
5:52 PM 61.0 °F 54.0 °F 78% 30.04 in 10.0 mi NNW 10.4 mph - N/A   Overcast
6:15 PM 60.1 °F 54.0 °F 80% 30.04 in 10.0 mi NNW 10.4 mph - N/A   Overcast
6:52 PM 61.0 °F 54.0 °F 78% 30.03 in 10.0 mi North 5.8 mph - N/A   Overcast
7:52 PM 60.1 °F 53.1 °F 78% 30.02 in 10.0 mi North 6.9 mph - N/A   Overcast
8:52 PM 55.9 °F 53.1 °F 90% 30.03 in 10.0 mi NW 3.5 mph - N/A   Scattered Clouds
9:52 PM 57.0 °F 53.1 °F 87% 30.03 in 10.0 mi NNE 3.5 mph - N/A   Mostly Cloudy
10:52 PM 54.0 °F 51.1 °F 90% 30.04 in 10.0 mi Calm Calm - N/A   Mostly Cloudy
11:52 PM 53.1 °F 50.0 °F 89% 30.04 in 10.0 mi Calm Calm - N/A   Mostly Cloudy